RH
16 18 20 20 21 20 20 19 18 17 16 17 19 22 22 21 21 21 21 21 20 19 19 17 17 20 22 23 22 19 19 21 23 25 28 29 32 32 30 30 31 33 35 35 35 34 35
16 17 18 19 21 21 21 22 22 22 20 21 23 26 27 25 23 23 25 26 26 24 22 20 18 20 23 25 21 20 20 22 25 27 29 31 35 34 38 35 35 31 36 36 36 38 38
16 17 17 17 17 17 17 19 19 19 18 19 20 24 24 23 23 20 21 24 26 27 29 24 22 22 24 26 22 20 20 24 25 27 30 34 39 41 39 37 33 33 38 41 43 41 43
16 18 18 19 18 18 20 21 20 20 19 22 28 28 30 27 24 21 20 20 21 28 29 26 25 26 27 24 22 20 21 24 25 28 31 33 39 44 45 37 37 34 40 41 43 42 45
18 19 21 23 22 23 26 27 27 29 31 34 38 37 37 34 32 30 27 27 26 30 29 24 26 28 27 23 23 21 22 24 27 30 32 34 41 43 40 34 31 31 38 42 46 46 45
20 20 21 26 27 32 34 35 39 40 43 44 47 48 41 41 38 33 33 32 28 29 25 25 26 29 24 24 21 20 22 24 29 31 35 39 43 42 38 36 35 36 41 45 43 44 49
24 25 26 27 31 36 40 45 49 50 51 49 49 49 49 45 32 28 29 27 30 32 29 27 28 26 23 20 20 21 23 27 29 32 34 38 42 42 40 36 37 39 42 48 41 41 51
34 33 33 37 42 44 46 51 58 60 60 60 60 59 54 49 35 27 29 30 29 30 31 29 24 22 20 19 22 23 24 28 29 32 36 39 39 41 39 36 36 38 40 46 42 44 51
57 49 46 49 53 55 57 60 60 64 66 65 65 66 57 53 38 32 30 31 32 31 33 27 23 21 19 20 22 23 24 27 29 31 33 35 39 38 38 33 37 38 39 43 45 47 50
73 73 70 68 70 73 73 73 72 69 74 75 69 70 64 57 48 40 34 31 31 31 32 24 23 22 21 21 24 24 23 25 29 28 30 33 34 38 35 33 37 37 38 44 45 48 54
81 80 78 79 77 80 83 80 80 77 79 75 74 74 72 61 53 49 38 30 31 30 51 22 24 22 22 24 25 26 23 26 26 26 29 35 34 36 33 33 37 35 38 44 43 43 47
83 81 80 80 79 81 85 85 82 82 81 80 70 76 78 65 56 54 44 31 29 36 57 24 25 25 25 29 26 24 25 24 23 25 28 32 34 34 32 33 36 36 37 41 42 41 53
75 75 77 79 81 83 82 84 86 84 83 80 73 75 76 70 63 59 52 41 39 37 25 26 27 30 30 30 26 26 26 25 25 34 33 35 33 31 32 32 37 39 37 44 45 51 43
65 59 66 78 76 82 81 84 80 82 79 79 79 74 74 72 63 62 61 50 49 31 32 34 33 33 31 27 28 27 25 27 26 27 33 36 42 30 30 32 42 44 40 42 41 39 38
54 52 66 80 72 75 77 78 78 86 80 80 79 69 69 67 66 63 66 64 53 37 35 35 33 31 31 30 29 27 26 29 28 29 34 34 34 29 31 32 38 42 42 37 39 35 39
49 52 63 69 73 72 74 78 76 86 86 78 74 69 60 65 66 67 67 66 53 44 41 38 34 32 34 33 31 28 27 32 32 32 34 35 33 30 31 31 35 39 39 41 39 44 40
51 51 56 63 67 65 67 75 74 86 89 81 81 69 66 65 67 68 69 64 55 49 47 42 37 36 37 37 36 29 30 33 33 34 34 35 33 32 34 32 32 38 39 41 39 40 41
53 56 59 55 51 53 62 66 75 86 90 83 83 80 77 67 67 66 66 60 59 58 54 49 46 42 39 38 35 33 33 33 36 37 35 36 35 37 36 33 32 37 38 40 46 42 40
61 62 63 64 63 60 60 65 69 77 82 84 90 84 78 66 68 68 66 63 63 60 57 55 51 48 43 40 36 36 35 36 40 41 39 40 39 42 38 37 37 39 40 40 43 45 45
63 64 63 64 66 69 72 69 68 75 77 91 92 88 79 65 70 71 63 63 64 60 59 58 57 57 53 47 44 39 41 43 43 44 47 43 44 44 44 42 40 40 40 40 42 48 45
69 72 72 71 71 71 73 76 75 78 82 84 91 90 83 70 70 67 68 69 71 68 66 63 59 59 55 50 51 47 46 49 52 52 53 52 47 47 44 44 43 44 46 45 44 43 47
69 70 76 72 71 75 76 75 73 73 76 85 90 90 78 73 76 70 73 78 78 76 70 65 62 57 53 54 51 50 55 59 59 60 62 59 55 53 54 52 51 51 48 45 44 44 44
67 66 65 66 67 67 69 69 70 74 77 84 89 78 74 72 73 80 81 83 80 76 75 69 62 59 58 58 61 62 60 63 66 69 68 67 66 65 61 56 56 53 47 47 46 49 49
59 60 63 66 65 67 67 67 67 68 70 71 72 73 79 82 78 90 87 84 82 81 78 74 69 67 65 64 68 70 73 78 79 75 70 72 75 73 69 65 66 57 53 52 51 57 59
55 56 59 63 65 66 66 67 65 62 62 61 73 77 79 78 86 89 89 88 88 89 83 78 75 73 73 77 74 78 82 82 79 76 76 80 82 78 76 66 53 62 61 61 63 64 66
56 55 56 60 62 62 67 69 68 68 67 71 74 80 82 86 86 90 89 91 94 89 86 85 81 82 84 84 83 94 88 80 83 82 78 78 80 80 78 73 57 63 64 67 69 67 71
56 56 57 60 62 64 68 68 68 70 73 75 77 86 86 83 88 88 85 89 88 90 96 91 91 91 88 84 91 93 90 86 93 81 81 86 85 82 80 78 66 67 72 75 78 75 77
49 54 56 57 62 67 72 72 71 72 76 79 82 88 89 84 82 85 85 87 91 95 97 94 95 94 90 96 97 91 93 87 87 82 83 80 77 79 79 78 76 75 78 82 82 82 82
46 53 57 59 65 68 69 77 78 75 78 86 85 91 96 93 88 91 92 93 95 96 97 97 97 96 94 97 97 96 95 87 83 83 82 83 79 86 83 84 84 86 87 87 86 87 88